Location: Unspecified
(0.0000°N, 0.0000°E)
Time: 03:50:25
(UTC+01:00)

Tiros 1 despin weight - All Passes

Search period start: 12 December 2017 00:00
Search period end: 22 December 2017 00:00
Orbit: 595 x 643 km, 48.2° (Epoch: 11 December)

Date Brightness Start Highest point End Pass type
(mag) Time Alt. Az. Time Alt. Az. Time Alt. Az.
12 Dec - 07:41:53 10° NNW 07:46:09 50° NE 07:50:25 10° SE daylight
12 Dec - 09:26:11 10° WSW 09:27:35 11° SW 09:29:00 10° SSW daylight
12 Dec - 19:49:56 10° SW 19:54:39 87° ESE 19:59:19 10° NE visible
13 Dec - 06:20:57 10° NE 06:21:31 10° NE 06:22:04 10° ENE visible
13 Dec - 07:58:39 10° NW 08:02:56 54° SW 08:07:17 10° SSE daylight
13 Dec - 18:26:42 10° S 18:30:00 19° SE 18:33:18 10° E daylight
13 Dec - 20:07:12 10° WSW 20:11:27 34° NW 20:15:40 10° NNE visible
14 Dec - 06:34:37 10° N 06:38:24 28° NE 06:42:10 10° ESE daylight
14 Dec - 08:16:34 10° W 08:19:47 20° SW 08:23:00 10° S daylight
14 Dec - 18:42:19 10° SSW 18:46:51 49° SE 18:51:22 10° NE daylight
14 Dec - 20:26:06 10° WNW 20:28:19 13° NW 20:30:31 10° NNW visible
15 Dec - 06:50:48 10° NW 06:55:12 81° NE 06:59:37 10° SE daylight
15 Dec - 17:20:57 10° SE 17:22:09 11° SE 17:23:22 10° ESE daylight
15 Dec - 18:59:02 10° SW 19:03:39 60° NW 19:08:16 10° NNE daylight
16 Dec - 05:27:51 10° N 05:30:37 16° NE 05:33:22 10° E visible
16 Dec - 07:08:01 10° WNW 07:12:00 34° SW 07:16:01 10° SSE daylight
16 Dec - 17:35:01 10° S 17:39:03 28° SE 17:43:04 10° ENE daylight
16 Dec - 19:16:49 10° WSW 19:20:29 22° NW 19:24:07 10° N visible
17 Dec - 05:43:15 10° NNW 05:47:27 44° NE 05:51:39 10° ESE visible
17 Dec - 07:26:54 10° WSW 07:28:52 13° SW 07:30:51 10° SSW daylight
17 Dec - 17:51:11 10° SW 17:55:52 77° SE 18:00:32 10° NE daylight
18 Dec - 05:59:54 10° NW 06:04:15 62° SW 06:08:36 10° SSE visible
18 Dec - 16:28:14 10° S 16:31:13 17° SE 16:34:13 10° E daylight
18 Dec - 18:08:19 10° WSW 18:12:40 38° NW 18:17:00 10° NNE daylight
19 Dec - 04:36:03 10° N 04:39:41 25° NE 04:43:18 10° ESE visible
19 Dec - 06:17:38 10° WNW 06:21:04 22° SW 06:24:30 10° S visible
19 Dec - 16:43:38 10° SSW 16:48:04 43° SE 16:52:31 10° ENE daylight
19 Dec - 18:26:54 10° W 18:29:31 15° NW 18:32:10 10° NNW daylight
20 Dec - 04:52:06 10° NNW 04:56:30 72° NE 05:00:53 10° SE visible
20 Dec - 17:00:14 10° SW 17:04:52 68° NW 17:09:31 10° NNE daylight
21 Dec - 03:29:26 10° NNE 03:31:53 15° NE 03:34:20 10° E visible
21 Dec - 05:09:11 10° WNW 05:13:17 38° SW 05:17:24 10° SSE visible
21 Dec - 15:36:26 10° S 15:40:16 25° SE 15:44:06 10° ENE daylight
21 Dec - 17:17:52 10° WSW 17:21:41 25° NW 17:25:32 10° N daylight
